FIN8RK EFHK-EKCH

Flight info

Callsign FIN8RK
Flight time 1h 35m
Altitude 34000
Route NUNTO Y369 REKDO DCT KOSKA DCT TOKSI N872 ERNOV
Aircraft A320/M-SDE3FGHIRWY/LB1

Departure

Time 2026-05-04 17:35
Airport Helsinki Vantaa Airport (EFHK)

Arrival

Time 2026-05-04 19:10
Airport Copenhagen Kastrup Airport (EKCH)
Time Latitude Longitude Altitude Speed Heading
2026-05-04 16:57 60.31742 24.96150 166 ft 0 kts 143°
2026-05-04 17:01 60.31741 24.96151 166 ft 0 kts 142°
2026-05-04 17:02 60.31742 24.96150 166 ft 0 kts 143°
2026-05-04 17:24 60.31754 24.96131 166 ft 4 kts 138°
2026-05-04 17:24 60.31780 24.96016 166 ft 0 kts 47°
2026-05-04 17:27 60.31785 24.96029 166 ft 4 kts 47°
2026-05-04 17:28 60.31842 24.96128 166 ft 8 kts 20°
2026-05-04 17:29 60.31959 24.95970 171 ft 8 kts 317°
2026-05-04 17:29 60.32265 24.95402 175 ft 19 kts 317°
2026-05-04 17:30 60.32577 24.95119 180 ft 13 kts 342°
2026-05-04 17:31 60.32789 24.94981 177 ft 16 kts 342°
2026-05-04 17:31 60.33009 24.94699 180 ft 6 kts 317°
2026-05-04 17:32 60.33044 24.94633 183 ft 1 kts 317°
2026-05-04 17:33 60.33124 24.94413 196 ft 11 kts 240°
2026-05-04 17:33 60.33109 24.94379 195 ft 0 kts 229°
2026-05-04 17:34 60.33108 24.94375 195 ft 3 kts 229°
2026-05-04 17:35 60.31835 24.91594 239 ft 163 kts 227°
2026-05-04 17:35 60.30321 24.88114 1482 ft 172 kts 242°
2026-05-04 17:35 60.29876 24.85759 1799 ft 189 kts 262°
2026-05-04 17:36 60.29852 24.82964 2073 ft 214 kts 278°
2026-05-04 17:36 60.30186 24.79840 2442 ft 239 kts 281°
2026-05-04 17:36 60.30180 24.76485 3310 ft 243 kts 258°
2026-05-04 17:36 60.29632 24.73238 4236 ft 246 kts 250°
2026-05-04 17:37 60.28951 24.70067 5160 ft 246 kts 249°
2026-05-04 17:37 60.28263 24.66904 6071 ft 247 kts 249°
2026-05-04 17:37 60.27580 24.63719 6906 ft 248 kts 249°
2026-05-04 17:37 60.26899 24.60513 7759 ft 250 kts 249°
2026-05-04 17:38 60.26220 24.57286 8600 ft 252 kts 249°
2026-05-04 17:38 60.25541 24.54021 9439 ft 254 kts 249°
2026-05-04 17:38 60.24860 24.50735 10183 ft 255 kts 249°
2026-05-04 17:38 60.24131 24.47462 10904 ft 259 kts 244°
2026-05-04 17:39 60.22283 24.40526 11403 ft 300 kts 243°
2026-05-04 17:39 60.21279 24.36791 11995 ft 306 kts 243°
2026-05-04 17:39 60.20257 24.33004 12698 ft 309 kts 243°
2026-05-04 17:40 60.19221 24.29186 13410 ft 312 kts 242°
2026-05-04 17:40 60.18177 24.25345 14043 ft 315 kts 242°
2026-05-04 17:40 60.17123 24.21467 14671 ft 317 kts 242°
2026-05-04 17:40 60.16063 24.17566 15299 ft 320 kts 242°
2026-05-04 17:41 60.15008 24.13686 15900 ft 322 kts 242°
2026-05-04 17:41 60.13933 24.09730 16521 ft 324 kts 242°
2026-05-04 17:41 60.12849 24.05740 17131 ft 327 kts 242°
2026-05-04 17:41 60.11741 24.01679 17751 ft 329 kts 242°
2026-05-04 17:42 60.10647 23.97695 18305 ft 332 kts 242°
2026-05-04 17:42 60.09531 23.93635 18831 ft 334 kts 242°
2026-05-04 17:42 60.08408 23.89548 19422 ft 335 kts 242°
2026-05-04 17:42 60.07281 23.85382 19985 ft 337 kts 243°
2026-05-04 17:43 60.06189 23.81218 20476 ft 339 kts 243°
2026-05-04 17:43 60.05102 23.77017 20990 ft 342 kts 243°
2026-05-04 17:43 60.04020 23.72832 21508 ft 344 kts 243°
2026-05-04 17:43 60.02913 23.68574 22017 ft 347 kts 243°
2026-05-04 17:44 60.01792 23.64288 22512 ft 349 kts 243°
2026-05-04 17:44 60.00655 23.59974 22992 ft 352 kts 243°
2026-05-04 17:44 59.99505 23.55639 23428 ft 354 kts 243°
2026-05-04 17:44 59.98347 23.51283 23818 ft 356 kts 243°
2026-05-04 17:45 59.97180 23.46898 24209 ft 358 kts 243°
2026-05-04 17:45 59.96007 23.42490 24581 ft 360 kts 243°
2026-05-04 17:45 59.94828 23.38065 24951 ft 362 kts 243°
2026-05-04 17:45 59.93641 23.33612 25305 ft 364 kts 243°
2026-05-04 17:46 59.92449 23.29140 25654 ft 366 kts 243°
2026-05-04 17:46 59.91249 23.24646 26000 ft 368 kts 243°
2026-05-04 17:46 59.90038 23.20137 26340 ft 370 kts 243°
2026-05-04 17:46 59.88817 23.15607 26680 ft 372 kts 243°
2026-05-04 17:47 59.87588 23.11065 26976 ft 374 kts 243°
2026-05-04 17:47 59.86348 23.06494 27276 ft 376 kts 243°
2026-05-04 17:47 59.85101 23.01899 27603 ft 378 kts 243°
2026-05-04 17:47 59.83848 22.97289 27709 ft 379 kts 243°
2026-05-04 17:48 59.82597 22.92680 27740 ft 378 kts 243°
2026-05-04 17:48 59.81352 22.88101 27720 ft 376 kts 243°
2026-05-04 17:48 59.80108 22.83537 27723 ft 375 kts 243°
2026-05-04 17:48 59.78862 22.78986 27722 ft 375 kts 243°
2026-05-04 17:49 59.77612 22.74430 27723 ft 375 kts 243°
2026-05-04 17:49 59.76365 22.69885 27722 ft 375 kts 243°
2026-05-04 17:49 59.75118 22.65346 27722 ft 375 kts 243°
2026-05-04 17:49 59.73870 22.60805 27722 ft 375 kts 243°
2026-05-04 17:50 59.72634 22.56326 27723 ft 375 kts 243°
2026-05-04 17:50 59.71380 22.51798 27722 ft 375 kts 243°
2026-05-04 17:50 59.70105 22.47206 27722 ft 375 kts 243°
2026-05-04 17:50 59.68864 22.42736 27780 ft 377 kts 243°
2026-05-04 17:51 59.67598 22.38182 28121 ft 378 kts 243°
2026-05-04 17:51 59.66324 22.33614 28432 ft 380 kts 243°
2026-05-04 17:51 59.65040 22.29026 28734 ft 382 kts 243°
2026-05-04 17:51 59.63750 22.24427 29017 ft 384 kts 243°
2026-05-04 17:52 59.62448 22.19797 29301 ft 386 kts 243°
2026-05-04 17:52 59.61140 22.15158 29557 ft 387 kts 243°
2026-05-04 17:52 59.59830 22.10507 29806 ft 389 kts 243°
2026-05-04 17:52 59.58511 22.05830 30020 ft 391 kts 243°
2026-05-04 17:53 59.57183 22.01133 30220 ft 392 kts 243°
2026-05-04 17:53 59.55849 21.96423 30440 ft 394 kts 243°
2026-05-04 17:53 59.54509 21.91704 30657 ft 395 kts 243°
2026-05-04 17:53 59.53168 21.86987 30951 ft 394 kts 243°
2026-05-04 17:54 59.51826 21.82281 31202 ft 394 kts 243°
2026-05-04 17:54 59.50483 21.77579 31402 ft 394 kts 243°
2026-05-04 17:54 59.49133 21.72875 31604 ft 396 kts 243°
2026-05-04 17:54 59.47774 21.68153 31837 ft 396 kts 243°
2026-05-04 17:55 59.46417 21.63443 32096 ft 396 kts 243°
2026-05-04 17:55 59.45058 21.58730 32351 ft 396 kts 243°
2026-05-04 17:55 59.43697 21.54024 32610 ft 396 kts 243°
2026-05-04 17:55 59.42336 21.49325 32874 ft 396 kts 243°
2026-05-04 17:56 59.41437 21.46219 33049 ft 396 kts 243°
2026-05-04 17:56 59.40079 21.41526 33305 ft 395 kts 243°
2026-05-04 17:56 59.38719 21.36835 33565 ft 395 kts 243°
2026-05-04 17:56 59.37356 21.32155 33702 ft 394 kts 243°
2026-05-04 17:57 59.34656 21.22926 33734 ft 388 kts 243°
2026-05-04 17:57 59.31537 21.12282 33703 ft 387 kts 243°
2026-05-04 17:58 59.29280 21.04610 33757 ft 389 kts 244°
2026-05-04 17:58 59.26582 20.95510 33731 ft 385 kts 244°
2026-05-04 17:59 59.23899 20.86468 33730 ft 384 kts 244°
2026-05-04 18:00 59.19876 20.72937 33734 ft 384 kts 244°
2026-05-04 18:00 59.17163 20.63954 33729 ft 384 kts 243°
2026-05-04 18:01 59.14375 20.55056 33726 ft 385 kts 243°
2026-05-04 18:01 59.11563 20.46186 33690 ft 385 kts 243°
2026-05-04 18:02 59.07363 20.32909 33704 ft 387 kts 243°
2026-05-04 18:02 59.04545 20.24004 33714 ft 387 kts 243°
2026-05-04 18:03 59.01711 20.15112 33722 ft 387 kts 242°
2026-05-04 18:03 58.98870 20.06239 33754 ft 386 kts 243°
2026-05-04 18:04 58.96035 19.97419 33758 ft 385 kts 243°
2026-05-04 18:05 58.91790 19.84255 33701 ft 384 kts 243°
2026-05-04 18:05 58.88954 19.75490 33708 ft 385 kts 243°
2026-05-04 18:06 58.84674 19.62340 33716 ft 386 kts 243°
2026-05-04 18:06 58.81801 19.53571 33716 ft 386 kts 242°
2026-05-04 18:07 58.78923 19.44818 33727 ft 387 kts 242°
2026-05-04 18:07 58.76044 19.36053 33729 ft 387 kts 242°
2026-05-04 18:08 58.73173 19.27365 33728 ft 387 kts 242°
2026-05-04 18:08 58.70263 19.18595 33735 ft 390 kts 242°
2026-05-04 18:09 58.64411 19.01047 33751 ft 390 kts 242°
2026-05-04 18:10 58.61475 18.92310 33748 ft 389 kts 242°
2026-05-04 18:10 58.58536 18.83587 33748 ft 389 kts 242°
2026-05-04 18:11 58.55588 18.74882 33756 ft 389 kts 242°
2026-05-04 18:11 58.52632 18.66194 33757 ft 390 kts 242°
2026-05-04 18:12 58.49673 18.57495 33719 ft 391 kts 242°
2026-05-04 18:12 58.46693 18.48786 33731 ft 392 kts 241°
2026-05-04 18:13 58.43700 18.40061 33740 ft 393 kts 241°
2026-05-04 18:14 58.39190 18.26987 33748 ft 393 kts 241°
2026-05-04 18:14 58.36180 18.18279 33751 ft 394 kts 241°
2026-05-04 18:15 58.30141 18.00940 33739 ft 396 kts 240°
2026-05-04 18:16 58.27069 17.92173 33740 ft 397 kts 240°
2026-05-04 18:16 58.24023 17.83522 33746 ft 397 kts 240°
2026-05-04 18:17 58.19411 17.70457 33753 ft 397 kts 240°
2026-05-04 18:18 58.14791 17.57427 33758 ft 397 kts 240°
2026-05-04 18:18 58.11696 17.48766 33758 ft 397 kts 240°
2026-05-04 18:19 58.07049 17.35791 33751 ft 397 kts 240°
2026-05-04 18:19 58.03948 17.27167 33754 ft 397 kts 240°
2026-05-04 18:20 58.00842 17.18563 33757 ft 397 kts 240°
2026-05-04 18:20 57.97734 17.09970 33763 ft 397 kts 239°
2026-05-04 18:21 57.94610 17.01402 33772 ft 397 kts 239°
2026-05-04 18:21 57.91477 16.92844 33771 ft 397 kts 239°
2026-05-04 18:22 57.88343 16.84285 33755 ft 399 kts 239°
2026-05-04 18:22 57.85195 16.75683 33758 ft 400 kts 239°
2026-05-04 18:23 57.82030 16.67097 33763 ft 400 kts 239°
2026-05-04 18:23 57.78848 16.58529 33789 ft 400 kts 239°
2026-05-04 18:24 57.75667 16.49988 33794 ft 399 kts 239°
2026-05-04 18:24 57.72493 16.41467 33807 ft 399 kts 239°
2026-05-04 18:25 57.69315 16.32981 33807 ft 398 kts 239°
2026-05-04 18:25 57.66130 16.24517 33803 ft 398 kts 239°
2026-05-04 18:26 57.62948 16.16069 33804 ft 398 kts 239°
2026-05-04 18:26 57.59763 16.07636 33808 ft 398 kts 239°
2026-05-04 18:27 57.56572 15.99227 33815 ft 397 kts 238°
2026-05-04 18:27 57.53370 15.90834 33812 ft 397 kts 238°
2026-05-04 18:28 57.50167 15.82463 33808 ft 397 kts 238°
2026-05-04 18:28 57.46961 15.74093 33796 ft 397 kts 238°
2026-05-04 18:29 57.43749 15.65734 33807 ft 397 kts 238°
2026-05-04 18:29 57.40525 15.57398 33813 ft 397 kts 238°
2026-05-04 18:30 57.35680 15.44928 33826 ft 397 kts 238°
2026-05-04 18:31 57.32451 15.36624 33827 ft 397 kts 238°
2026-05-04 18:31 57.29213 15.28340 33836 ft 397 kts 238°
2026-05-04 18:32 57.25969 15.20064 33815 ft 399 kts 237°
2026-05-04 18:32 57.22696 15.11755 33832 ft 400 kts 237°
2026-05-04 18:33 57.19411 15.03457 33836 ft 401 kts 237°
2026-05-04 18:33 57.16126 14.95164 33847 ft 401 kts 237°
2026-05-04 18:34 57.12832 14.86885 33865 ft 400 kts 237°
2026-05-04 18:34 57.11185 14.82762 33631 ft 399 kts 237°
2026-05-04 18:34 57.09546 14.78672 33358 ft 396 kts 237°
2026-05-04 18:34 57.07916 14.74605 33086 ft 394 kts 237°
2026-05-04 18:35 57.06293 14.70564 32812 ft 392 kts 237°
2026-05-04 18:35 57.04676 14.66534 32527 ft 392 kts 237°
2026-05-04 18:35 57.03064 14.62513 32264 ft 391 kts 237°
2026-05-04 18:35 57.01454 14.58503 32001 ft 389 kts 237°
2026-05-04 18:36 56.99866 14.54564 31742 ft 388 kts 237°
2026-05-04 18:36 56.98244 14.50547 31481 ft 386 kts 237°
2026-05-04 18:36 56.96648 14.46600 31231 ft 385 kts 236°
2026-05-04 18:36 56.95077 14.42728 30990 ft 383 kts 236°
2026-05-04 18:37 56.93488 14.38821 30746 ft 382 kts 236°
2026-05-04 18:37 56.91905 14.34937 30493 ft 380 kts 236°
2026-05-04 18:37 56.90327 14.31067 30245 ft 378 kts 236°
2026-05-04 18:37 56.88755 14.27213 30007 ft 377 kts 236°
2026-05-04 18:38 56.87192 14.23383 29723 ft 375 kts 236°
2026-05-04 18:38 56.85639 14.19589 29363 ft 369 kts 236°
2026-05-04 18:38 56.84110 14.15865 28896 ft 364 kts 236°
2026-05-04 18:38 56.82602 14.12200 28492 ft 359 kts 236°
2026-05-04 18:39 56.81112 14.08578 28065 ft 355 kts 236°
2026-05-04 18:39 56.79639 14.04998 27664 ft 350 kts 236°
2026-05-04 18:39 56.78184 14.01471 27265 ft 346 kts 236°
2026-05-04 18:39 56.76740 13.97982 26861 ft 342 kts 236°
2026-05-04 18:40 56.75314 13.94542 26472 ft 338 kts 236°
2026-05-04 18:40 56.73905 13.91144 26095 ft 334 kts 236°
2026-05-04 18:40 56.72512 13.87789 25716 ft 330 kts 236°
2026-05-04 18:40 56.71136 13.84472 25350 ft 326 kts 236°
2026-05-04 18:41 56.69773 13.81191 24977 ft 324 kts 236°
2026-05-04 18:41 56.68418 13.77931 24593 ft 322 kts 236°
2026-05-04 18:41 56.67071 13.74696 24221 ft 320 kts 236°
2026-05-04 18:41 56.65727 13.71481 23834 ft 319 kts 236°
2026-05-04 18:42 56.64389 13.68284 23429 ft 317 kts 236°
2026-05-04 18:42 56.63057 13.65107 22984 ft 315 kts 236°
2026-05-04 18:42 56.61734 13.61962 22618 ft 312 kts 236°
2026-05-04 18:42 56.60862 13.59896 22366 ft 311 kts 236°
2026-05-04 18:43 56.59113 13.55749 21863 ft 308 kts 236°
2026-05-04 18:43 56.58255 13.53710 21611 ft 307 kts 236°
2026-05-04 18:43 56.56964 13.50648 21233 ft 305 kts 236°
2026-05-04 18:43 56.55681 13.47606 20854 ft 303 kts 236°
2026-05-04 18:44 56.54406 13.44580 20478 ft 301 kts 236°
2026-05-04 18:44 56.53567 13.42592 20231 ft 300 kts 236°
2026-05-04 18:44 56.51875 13.38595 19735 ft 298 kts 236°
2026-05-04 18:44 56.50616 13.35626 19366 ft 296 kts 236°
2026-05-04 18:45 56.49363 13.32675 19003 ft 295 kts 236°
2026-05-04 18:45 56.48115 13.29736 18637 ft 294 kts 236°
2026-05-04 18:45 56.46872 13.26813 18276 ft 293 kts 236°
2026-05-04 18:45 56.45632 13.23900 17880 ft 292 kts 236°
2026-05-04 18:46 56.44397 13.21009 17523 ft 289 kts 236°
2026-05-04 18:46 56.43174 13.18147 17171 ft 287 kts 236°
2026-05-04 18:46 56.41960 13.15305 16822 ft 285 kts 236°
2026-05-04 18:46 56.40754 13.12489 16466 ft 282 kts 236°
2026-05-04 18:47 56.39555 13.09694 16144 ft 281 kts 236°
2026-05-04 18:47 56.38359 13.06906 15811 ft 280 kts 236°
2026-05-04 18:47 56.37170 13.04137 15475 ft 279 kts 236°
2026-05-04 18:47 56.35986 13.01383 15133 ft 278 kts 236°
2026-05-04 18:48 56.34801 12.98639 14807 ft 277 kts 236°
2026-05-04 18:48 56.33621 12.95904 14474 ft 276 kts 236°
2026-05-04 18:48 56.32463 12.93218 14146 ft 275 kts 236°
2026-05-04 18:48 56.31292 12.90501 13811 ft 275 kts 236°
2026-05-04 18:49 56.30120 12.87786 13446 ft 274 kts 236°
2026-05-04 18:49 56.28955 12.85090 13106 ft 272 kts 236°
2026-05-04 18:49 56.27783 12.82381 12763 ft 270 kts 236°
2026-05-04 18:49 56.26647 12.79761 12432 ft 268 kts 236°
2026-05-04 18:50 56.25487 12.77094 12096 ft 266 kts 236°
2026-05-04 18:50 56.24363 12.74514 11756 ft 265 kts 236°
2026-05-04 18:50 56.23230 12.71913 11415 ft 264 kts 236°
2026-05-04 18:50 56.22102 12.69325 11087 ft 262 kts 236°
2026-05-04 18:51 56.20976 12.66753 10747 ft 262 kts 235°
2026-05-04 18:51 56.19852 12.64187 10410 ft 261 kts 235°
2026-05-04 18:51 56.18734 12.61634 10076 ft 260 kts 235°
2026-05-04 18:51 56.17551 12.59129 9973 ft 267 kts 227°
2026-05-04 18:52 56.16023 12.57198 9560 ft 273 kts 209°
2026-05-04 18:52 56.14209 12.56128 9416 ft 278 kts 199°
2026-05-04 18:52 56.12329 12.55269 9282 ft 279 kts 199°
2026-05-04 18:52 56.10448 12.54392 9150 ft 279 kts 199°
2026-05-04 18:53 56.08575 12.53508 9021 ft 278 kts 199°
2026-05-04 18:53 56.06706 12.52627 8892 ft 278 kts 199°
2026-05-04 18:53 56.04845 12.51754 8756 ft 273 kts 199°
2026-05-04 18:53 56.03042 12.50915 8621 ft 262 kts 199°
2026-05-04 18:54 56.01316 12.50114 8484 ft 251 kts 199°
2026-05-04 18:54 55.99658 12.49345 8336 ft 242 kts 200°
2026-05-04 18:54 55.98033 12.48586 8271 ft 242 kts 200°
2026-05-04 18:54 55.96406 12.47825 8154 ft 242 kts 200°
2026-05-04 18:55 55.94783 12.47065 8053 ft 241 kts 200°
2026-05-04 18:55 55.91539 12.45538 7791 ft 240 kts 200°
2026-05-04 18:55 55.89926 12.44769 7644 ft 240 kts 200°
2026-05-04 18:56 55.88318 12.44005 7504 ft 239 kts 200°
2026-05-04 18:56 55.86711 12.43247 7363 ft 239 kts 199°
2026-05-04 18:56 55.85106 12.42494 7218 ft 238 kts 199°
2026-05-04 18:56 55.83506 12.41741 7075 ft 238 kts 200°
2026-05-04 18:57 55.81904 12.40995 6923 ft 238 kts 198°
2026-05-04 18:57 55.80247 12.40886 6790 ft 245 kts 172°
2026-05-04 18:57 55.78676 12.42152 6649 ft 253 kts 150°
2026-05-04 18:57 55.77206 12.43861 6521 ft 253 kts 150°
2026-05-04 18:58 55.75733 12.45582 6411 ft 253 kts 150°
2026-05-04 18:58 55.74279 12.47322 6276 ft 253 kts 145°
2026-05-04 18:58 55.73153 12.49726 6146 ft 258 kts 117°
2026-05-04 18:58 55.72736 12.52812 6014 ft 259 kts 88°
2026-05-04 18:59 55.73116 12.55899 5884 ft 257 kts 68°
2026-05-04 18:59 55.73729 12.58889 5642 ft 258 kts 68°
2026-05-04 18:59 55.74354 12.61850 5300 ft 255 kts 63°
2026-05-04 18:59 55.75224 12.64478 5158 ft 238 kts 49°
2026-05-04 19:00 55.76307 12.66588 5047 ft 227 kts 37°
2026-05-04 19:00 55.77496 12.68418 4981 ft 227 kts 37°
2026-05-04 19:00 55.78689 12.70241 4836 ft 225 kts 36°
2026-05-04 19:00 55.79873 12.72045 4688 ft 224 kts 36°
2026-05-04 19:01 55.81057 12.73851 4519 ft 224 kts 37°
2026-05-04 19:01 55.82240 12.75646 4315 ft 222 kts 36°
2026-05-04 19:01 55.83393 12.77394 4158 ft 220 kts 36°
2026-05-04 19:01 55.84539 12.79195 4023 ft 221 kts 45°
2026-05-04 19:02 55.85211 12.81637 3897 ft 225 kts 77°
2026-05-04 19:02 55.85399 12.84407 3772 ft 225 kts 84°
2026-05-04 19:02 55.85498 12.87181 3645 ft 224 kts 85°
2026-05-04 19:02 55.85582 12.89924 3514 ft 219 kts 85°
2026-05-04 19:03 55.85661 12.92570 3418 ft 208 kts 85°
2026-05-04 19:03 55.85725 12.95085 3291 ft 201 kts 87°
2026-05-04 19:03 55.85408 12.97471 3130 ft 201 kts 123°
2026-05-04 19:03 55.84347 12.98959 3020 ft 195 kts 169°
2026-05-04 19:04 55.83083 12.98604 3022 ft 184 kts 220°
2026-05-04 19:04 55.82354 12.96820 3033 ft 180 kts 246°
2026-05-04 19:04 55.81555 12.95095 3023 ft 185 kts 221°
2026-05-04 19:04 55.80568 12.93633 3026 ft 185 kts 225°
2026-05-04 19:05 55.79606 12.92122 3017 ft 185 kts 225°
2026-05-04 19:05 55.78644 12.90611 3018 ft 185 kts 225°
2026-05-04 19:05 55.77683 12.89103 3025 ft 184 kts 225°
2026-05-04 19:05 55.76722 12.87598 3027 ft 184 kts 225°
2026-05-04 19:06 55.75760 12.86091 3031 ft 185 kts 225°
2026-05-04 19:06 55.74798 12.84587 3029 ft 184 kts 225°
2026-05-04 19:06 55.73836 12.83083 3031 ft 185 kts 225°
2026-05-04 19:06 55.72871 12.81574 3007 ft 185 kts 225°
2026-05-04 19:07 55.71907 12.80069 2837 ft 185 kts 225°
2026-05-04 19:07 55.70942 12.78564 2607 ft 184 kts 225°
2026-05-04 19:07 55.69981 12.77067 2373 ft 183 kts 226°
2026-05-04 19:07 55.69027 12.75580 2119 ft 182 kts 225°
2026-05-04 19:08 55.68076 12.74099 1869 ft 181 kts 225°
2026-05-04 19:08 55.67135 12.72635 1624 ft 179 kts 225°
2026-05-04 19:08 55.66211 12.71198 1376 ft 172 kts 225°
2026-05-04 19:08 55.65338 12.69844 1146 ft 163 kts 225°
2026-05-04 19:09 55.64519 12.68574 948 ft 148 kts 225°
2026-05-04 19:09 55.63764 12.67401 730 ft 142 kts 225°
2026-05-04 19:09 55.63028 12.66258 534 ft 139 kts 225°
2026-05-04 19:09 55.62301 12.65131 339 ft 139 kts 225°
2026-05-04 19:10 55.61577 12.64017 147 ft 138 kts 224°
2026-05-04 19:10 55.60873 12.62924 27 ft 126 kts 222°
2026-05-04 19:10 55.60344 12.62079 23 ft 77 kts 220°
2026-05-04 19:10 55.60055 12.61642 27 ft 26 kts 222°
2026-05-04 19:11 55.60050 12.61467 29 ft 14 kts 316°
2026-05-04 19:11 55.60138 12.61512 24 ft 15 kts 40°
2026-05-04 19:11 55.60210 12.61624 25 ft 13 kts 42°
2026-05-04 19:11 55.60273 12.61723 24 ft 12 kts 41°
2026-05-04 19:12 55.60336 12.61821 24 ft 15 kts 41°
2026-05-04 19:12 55.60544 12.62142 24 ft 22 kts 41°
2026-05-04 19:12 55.60660 12.62318 25 ft 22 kts 36°
2026-05-04 19:13 55.60802 12.62424 24 ft 23 kts 27°
2026-05-04 19:13 55.60927 12.62605 24 ft 24 kts 41°
2026-05-04 19:13 55.61055 12.62803 24 ft 24 kts 41°
2026-05-04 19:13 55.61177 12.62992 24 ft 24 kts 41°
2026-05-04 19:14 55.61300 12.63182 24 ft 22 kts 41°
2026-05-04 19:14 55.61407 12.63350 24 ft 19 kts 41°
2026-05-04 19:14 55.61491 12.63479 24 ft 11 kts 41°
2026-05-04 19:14 55.61538 12.63552 24 ft 8 kts 41°
2026-05-04 19:15 55.61596 12.63641 24 ft 18 kts 41°
2026-05-04 19:15 55.61695 12.63796 24 ft 20 kts 41°
2026-05-04 19:15 55.61800 12.63959 26 ft 21 kts 41°
2026-05-04 19:15 55.61921 12.64111 26 ft 22 kts 26°
2026-05-04 19:16 55.62066 12.64232 24 ft 24 kts 25°
2026-05-04 19:16 55.62168 12.64318 24 ft 13 kts 26°
2026-05-04 19:16 55.62254 12.64344 23 ft 13 kts 328°
2026-05-04 19:16 55.62321 12.64180 22 ft 20 kts 304°
2026-05-04 19:17 55.62404 12.63955 21 ft 22 kts 303°
2026-05-04 19:17 55.62499 12.63795 23 ft 12 kts 336°
2026-05-04 19:17 55.62541 12.63773 24 ft 2 kts 349°
2026-05-04 19:17 55.62542 12.63773 24 ft 0 kts 349°
2026-05-04 19:18 55.62545 12.63772 24 ft 2 kts 350°
2026-05-04 19:18 55.62609 12.63780 24 ft 13 kts 15°
2026-05-04 19:18 55.62664 12.63828 24 ft 8 kts 31°
2026-05-04 19:18 55.62706 12.63875 24 ft 7 kts 32°
2026-05-04 19:19 55.62743 12.63918 24 ft 6 kts 33°
2026-05-04 19:19 55.62785 12.63959 25 ft 10 kts 23°
2026-05-04 19:19 55.62852 12.63989 24 ft 6 kts 11°
2026-05-04 19:19 55.62875 12.63997 24 ft 2 kts 12°
2026-05-04 19:20 55.62882 12.64000 24 ft 0 kts 12°